START_TIME,STEP,MOV.,M15,t_acc.,M20,t_acc.
1981-08-24 03:00:44.990 ,7,1,0.,24.0,0.,24.0
1981-08-24 03:01:08.990 ,7,1,0.,24.0,0.,24.0
1981-08-24 03:01:32.990 ,7,0,0.,24.0,0.,24.0
1981-08-24 03:01:56.990 ,6,1,0.,24.0,0.,24.0
1981-08-24 03:02:20.990 ,6,0,0.,24.0,0.,24.0
1981-08-24 03:02:44.990 ,5,1,0.,24.0,0.,24.0
1981-08-24 03:03:08.990 ,5,0,0.,24.0,0.,24.0
1981-08-24 03:03:32.990 ,4,1,0.,24.0,0.,24.0
1981-08-24 03:03:56.990 ,4,0,0.,24.0,0.,24.0
1981-08-24 03:04:20.990 ,3,1,0.,24.0,0.,24.0
1981-08-24 03:04:44.990 ,3,0,0.,24.0,0.,24.0
1981-08-24 03:05:08.990 ,2,1,0.,24.0,0.,24.0
1981-08-24 03:05:32.990 ,2,0,0.,24.0,0.,24.0
1981-08-24 03:05:56.990 ,1,1,0.,24.0,0.,24.0
1981-08-24 03:06:20.990 ,1,0,0.,24.0,0.,24.0
1981-08-24 03:06:44.990 ,0,1,0.,24.0,0.,24.0
1981-08-24 03:07:08.990 ,0,0,0.,24.0,0.,24.0
1981-08-24 03:07:32.990 ,0,1,0.,24.0,0.,24.0
1981-08-24 03:07:56.990 ,0,0,0.,24.0,0.,24.0
1981-08-24 03:08:20.990 ,1,1,0.,24.0,0.,24.0
1981-08-24 03:08:44.990 ,1,0,0.,24.0,0.,24.0
1981-08-24 03:09:08.990 ,2,1,0.,24.0,0.,24.0
1981-08-24 03:09:32.990 ,2,0,0.,24.0,0.,24.0
1981-08-24 03:09:56.990 ,3,1,0.,24.0,0.,24.0
1981-08-24 03:10:20.990 ,3,0,0.,24.0,0.,24.0
1981-08-24 03:10:44.990 ,4,1,0.,24.0,0.,24.0
1981-08-24 03:11:08.990 ,4,0,0.,24.0,0.,24.0
1981-08-24 03:11:32.990 ,5,1,0.,24.0,0.,24.0
1981-08-24 03:11:56.990 ,5,0,0.,24.0,0.,24.0
1981-08-24 03:12:20.990 ,6,1,0.,24.0,0.,24.0
1981-08-24 03:12:44.990 ,6,0,0.,24.0,0.,24.0
1981-08-24 03:13:08.990 ,7,1,0.,24.0,0.,24.0
1981-08-24 03:13:32.990 ,7,0,0.,24.0,0.,24.0
1981-08-24 03:13:56.990 ,7,1,0.,24.0,0.,24.0
1981-08-24 03:14:20.990 ,6,1,0.,24.0,0.,24.0
1981-08-24 03:14:44.990 ,5,1,0.,24.0,0.,24.0
1981-08-24 03:15:08.990 ,4,1,0.,24.0,0.,24.0
1981-08-24 03:15:32.990 ,3,1,0.,24.0,0.,24.0
1981-08-24 03:15:56.990 ,2,1,0.,24.0,0.,24.0
1981-08-24 03:16:20.990 ,1,1,0.,24.0,0.,24.0
1981-08-24 03:16:44.990 ,0,1,0.,24.0,0.,24.0
1981-08-24 03:17:08.980 ,0,1,0.,24.0,0.,24.0
1981-08-24 03:17:32.980 ,1,1,0.,24.0,0.,24.0
1981-08-24 03:17:56.980 ,2,1,0.,24.0,0.,24.0
1981-08-24 03:18:20.980 ,3,1,0.,24.0,0.,24.0
1981-08-24 03:18:44.980 ,4,1,0.,24.0,0.,24.0
1981-08-24 03:19:08.980 ,5,1,0.,24.0,0.,24.0
1981-08-24 03:19:32.980 ,6,1,0.,24.0,0.,24.0
1981-08-24 03:19:56.980 ,7,1,0.,24.0,0.,24.0
1981-08-24 03:20:20.980 ,7,1,0.,24.0,0.,24.0
1981-08-24 03:20:44.980 ,7,0,0.,24.0,0.,24.0
1981-08-24 03:21:08.980 ,6,1,0.,24.0,0.,24.0
1981-08-24 03:21:32.980 ,6,0,0.,24.0,0.,24.0
1981-08-24 03:21:56.980 ,5,1,0.,24.0,0.,24.0
1981-08-24 03:22:20.980 ,5,0,0.,24.0,0.,24.0
1981-08-24 03:22:44.980 ,4,1,0.,24.0,0.,24.0
1981-08-24 03:23:08.980 ,4,0,0.,24.0,0.,24.0
1981-08-24 03:23:32.980 ,3,1,0.,24.0,0.,24.0
1981-08-24 03:23:56.980 ,3,0,0.,24.0,0.,24.0
1981-08-24 03:24:20.980 ,2,1,0.,24.0,0.,24.0
1981-08-24 03:24:44.980 ,2,0,0.,24.0,0.,24.0
1981-08-24 03:25:08.980 ,1,1,0.,24.0,0.,24.0
1981-08-24 03:25:32.980 ,1,0,0.,24.0,0.,24.0
1981-08-24 03:25:56.980 ,0,1,0.,24.0,0.,24.0
1981-08-24 03:26:20.980 ,0,0,0.,24.0,0.,24.0
1981-08-24 03:26:44.980 ,0,1,0.,24.0,0.,24.0
1981-08-24 03:27:08.980 ,0,0,0.,24.0,0.,24.0
1981-08-24 03:27:32.980 ,1,1,0.,24.0,0.,24.0
1981-08-24 03:27:56.980 ,1,0,0.,24.0,0.,24.0
1981-08-24 03:28:20.980 ,2,1,0.,24.0,0.,24.0
1981-08-24 03:28:44.980 ,2,0,0.,24.0,0.,24.0
1981-08-24 03:29:08.980 ,3,1,0.,24.0,0.,24.0
1981-08-24 03:29:32.980 ,3,0,0.,24.0,0.,24.0
1981-08-24 03:29:56.980 ,4,1,0.,24.0,0.,24.0
1981-08-24 03:30:20.980 ,4,0,0.,24.0,0.,24.0
1981-08-24 03:30:44.980 ,5,1,0.,24.0,0.,24.0
1981-08-24 03:31:08.980 ,5,0,0.,24.0,0.,24.0
1981-08-24 03:31:32.980 ,6,1,0.,24.0,0.,24.0
1981-08-24 03:31:56.980 ,6,0,0.,24.0,0.,24.0
1981-08-24 03:32:20.980 ,7,1,0.,24.0,0.,24.0
1981-08-24 03:32:44.980 ,7,0,0.,24.0,0.,24.0
1981-08-24 03:33:08.980 ,7,1,0.,24.0,0.,24.0
1981-08-24 03:33:32.980 ,6,1,0.,24.0,0.,24.0
1981-08-24 03:33:56.980 ,5,1,0.,24.0,0.,24.0
1981-08-24 03:34:20.980 ,4,1,0.,24.0,0.,24.0
1981-08-24 03:34:44.980 ,3,1,0.,24.0,0.,24.0
1981-08-24 03:35:08.980 ,2,1,0.,24.0,0.,24.0
1981-08-24 03:35:32.980 ,1,1,0.,24.0,0.,24.0
1981-08-24 03:35:56.980 ,0,1,0.,24.0,0.,24.0
1981-08-24 03:36:20.980 ,0,1,0.,24.0,0.,24.0
1981-08-24 03:36:44.980 ,1,1,0.,24.0,0.,24.0
1981-08-24 03:37:56.980 ,0,0,0.,24.0,0.,24.0
1981-08-24 03:38:20.980 ,5,1,0.,24.0,0.,24.0
1981-08-24 03:38:44.980 ,6,1,0.,24.0,0.,24.0
1981-08-24 03:39:08.980 ,7,1,0.,24.0,0.,24.0
1981-08-24 03:39:32.980 ,7,1,0.,24.0,0.,24.0
1981-08-24 03:39:56.980 ,7,0,0.,24.0,0.,24.0
1981-08-24 03:40:20.980 ,6,1,0.,24.0,0.,24.0
1981-08-24 03:40:44.980 ,6,0,0.,24.0,0.,24.0
1981-08-24 03:41:08.980 ,5,1,0.,24.0,0.,24.0
1981-08-24 03:41:32.980 ,5,0,0.,24.0,0.,24.0
1981-08-24 03:41:56.980 ,4,1,0.,24.0,0.,24.0
1981-08-24 03:42:20.980 ,4,0,0.,24.0,0.,24.0
1981-08-24 03:42:44.980 ,3,1,0.,24.0,0.,24.0
1981-08-24 03:43:08.980 ,3,0,0.,24.0,0.,24.0
1981-08-24 03:43:32.980 ,2,1,0.,24.0,0.,24.0
1981-08-24 03:43:56.980 ,2,0,0.,24.0,0.,24.0
1981-08-24 03:44:20.980 ,1,1,0.,24.0,0.,24.0
1981-08-24 03:44:44.980 ,1,0,0.,24.0,0.,24.0
1981-08-24 03:45:08.980 ,0,1,0.,24.0,0.,24.0
1981-08-24 03:45:32.980 ,0,0,0.,24.0,0.,24.0
1981-08-24 03:45:56.980 ,0,1,0.,24.0,0.,24.0
1981-08-24 03:46:20.980 ,0,0,0.,24.0,0.,24.0
1981-08-24 03:46:44.980 ,1,1,0.,24.0,0.,24.0
1981-08-24 03:47:08.980 ,1,0,0.,24.0,0.,24.0
1981-08-24 03:47:32.980 ,2,1,0.,24.0,0.,24.0
1981-08-24 03:47:56.980 ,2,0,0.,24.0,0.,24.0
1981-08-24 03:48:20.980 ,3,1,0.,24.0,0.,24.0
1981-08-24 03:48:44.980 ,3,0,0.,24.0,0.,24.0
1981-08-24 03:49:08.980 ,4,1,0.,24.0,0.,24.0
1981-08-24 03:49:32.980 ,4,0,0.,24.0,0.,24.0
1981-08-24 03:49:56.980 ,5,1,0.,24.0,0.,24.0
1981-08-24 03:50:20.980 ,5,0,0.,24.0,0.,24.0
1981-08-24 03:50:44.980 ,6,1,0.,24.0,0.,24.0
1981-08-24 03:51:08.980 ,6,0,0.,24.0,0.,24.0
1981-08-24 03:51:32.980 ,7,1,0.,24.0,0.,24.0
1981-08-24 03:51:56.980 ,7,0,0.,24.0,0.,24.0
1981-08-24 03:52:20.980 ,7,1,0.,24.0,0.,24.0
1981-08-24 03:52:44.980 ,6,1,0.,24.0,0.,24.0
1981-08-24 03:53:08.980 ,5,1,0.,24.0,0.,24.0
1981-08-24 03:53:32.980 ,4,1,0.,24.0,0.,24.0
1981-08-24 03:53:56.980 ,3,1,0.,24.0,0.,24.0
1981-08-24 03:54:20.980 ,2,1,0.,24.0,0.,24.0
1981-08-24 03:54:44.980 ,1,1,0.,24.0,0.,24.0
1981-08-24 03:55:08.980 ,0,1,0.,24.0,0.,24.0
1981-08-24 03:55:32.980 ,0,1,0.,24.0,0.,24.0
1981-08-24 03:55:56.980 ,1,1,0.,24.0,0.,24.0
1981-08-24 03:56:20.980 ,2,1,0.,24.0,0.,24.0
1981-08-24 03:56:44.980 ,3,1,0.,24.0,0.,24.0
1981-08-24 03:57:08.980 ,4,1,0.,24.0,0.,24.0
1981-08-24 03:57:32.980 ,5,1,0.,24.0,0.,24.0
1981-08-24 03:57:56.980 ,6,1,0.,24.0,0.,24.0
1981-08-24 03:58:20.980 ,7,1,0.,24.0,0.,24.0
1981-08-24 03:58:44.980 ,7,1,0.,24.0,0.,24.0
1981-08-24 03:59:08.980 ,7,0,0.,24.0,0.,24.0
1981-08-24 03:59:32.980 ,6,1,0.,24.0,0.,24.0
1981-08-24 03:59:56.980 ,6,0,0.,24.0,0.,24.0
1981-08-24 04:00:20.980 ,5,1,0.,24.0,0.,24.0
1981-08-24 04:00:44.980 ,5,0,0.,24.0,0.,24.0
1981-08-24 04:01:08.980 ,4,1,0.,24.0,0.,24.0
1981-08-24 04:01:32.980 ,4,0,0.,24.0,0.,24.0
1981-08-24 04:01:56.980 ,3,1,0.,24.0,0.,24.0
1981-08-24 04:02:20.980 ,3,0,0.,24.0,0.,24.0
1981-08-24 04:02:44.980 ,2,1,0.,24.0,0.,24.0
1981-08-24 04:03:08.980 ,2,0,0.,24.0,0.,24.0
1981-08-24 04:03:32.980 ,1,1,0.,24.0,0.,24.0
1981-08-24 04:03:56.980 ,1,0,0.,24.0,0.,24.0
1981-08-24 04:04:20.980 ,0,1,0.,24.0,0.,24.0
1981-08-24 04:04:44.980 ,0,0,0.,24.0,0.,24.0
1981-08-24 04:05:08.980 ,0,1,0.,24.0,0.,24.0
1981-08-24 04:05:32.980 ,0,0,0.,24.0,0.,24.0
1981-08-24 04:05:56.980 ,1,1,0.,24.0,0.,24.0
1981-08-24 04:06:20.980 ,1,0,0.,24.0,0.,24.0
1981-08-24 04:06:44.980 ,2,1,0.,24.0,0.,24.0
1981-08-24 04:07:08.980 ,2,0,0.,24.0,0.,24.0
1981-08-24 04:07:32.980 ,3,1,0.,24.0,0.,24.0
1981-08-24 04:07:56.980 ,3,0,0.,24.0,0.,24.0
1981-08-24 04:08:20.980 ,4,1,0.,24.0,0.,24.0
1981-08-24 04:08:44.980 ,4,0,0.,24.0,0.,24.0
1981-08-24 04:09:08.980 ,5,1,0.,24.0,0.,24.0
1981-08-24 04:09:32.980 ,5,0,0.,24.0,0.,24.0
1981-08-24 04:09:56.980 ,6,1,0.,24.0,0.,24.0
1981-08-24 04:10:20.980 ,6,0,0.,24.0,0.,24.0
1981-08-24 04:10:44.980 ,7,1,0.,24.0,0.,24.0
1981-08-24 04:11:08.980 ,7,0,0.,24.0,0.,24.0
1981-08-24 04:11:32.980 ,7,1,0.,24.0,0.,24.0
1981-08-24 04:11:56.980 ,6,1,0.,24.0,0.,24.0
1981-08-24 04:12:20.980 ,5,1,0.,24.0,0.,24.0
1981-08-24 04:12:44.980 ,4,1,0.,24.0,0.,24.0
1981-08-24 04:13:08.980 ,3,1,0.,24.0,0.,24.0
1981-08-24 04:13:32.980 ,2,1,0.,24.0,0.,24.0
1981-08-24 04:13:56.980 ,1,1,0.,24.0,0.,24.0
1981-08-24 04:14:20.980 ,0,1,0.,24.0,0.,24.0
1981-08-24 04:14:44.980 ,0,1,0.,24.0,0.,24.0
1981-08-24 04:15:08.980 ,1,1,0.,24.0,0.,24.0
1981-08-24 04:15:32.980 ,2,1,0.,24.0,0.,24.0
1981-08-24 04:15:56.980 ,3,1,0.,24.0,0.,24.0
1981-08-24 04:16:20.980 ,4,1,0.,24.0,0.,24.0
1981-08-24 04:16:44.980 ,5,1,0.,24.0,0.,24.0
1981-08-24 04:17:08.980 ,6,1,0.,24.0,0.,24.0
1981-08-24 04:17:32.980 ,7,1,0.,24.0,0.,24.0
1981-08-24 04:17:56.980 ,7,1,0.,24.0,0.,24.0
1981-08-24 04:18:20.980 ,7,0,0.,24.0,0.,24.0
1981-08-24 04:18:44.980 ,6,1,0.,24.0,0.,24.0
1981-08-24 04:19:08.980 ,6,0,0.,24.0,0.,24.0
1981-08-24 04:19:32.980 ,5,1,0.,24.0,0.,24.0
1981-08-24 04:19:56.980 ,5,0,0.,24.0,0.,24.0
1981-08-24 04:20:20.980 ,4,1,0.,24.0,0.,24.0
1981-08-24 04:20:44.980 ,4,0,0.,24.0,0.,24.0
1981-08-24 04:21:08.980 ,3,1,0.,24.0,0.,24.0
1981-08-24 04:21:32.980 ,3,0,0.,24.0,0.,24.0
1981-08-24 04:21:56.980 ,2,1,0.,24.0,0.,24.0
1981-08-24 04:22:20.980 ,2,0,0.,24.0,0.,24.0
1981-08-24 04:22:44.980 ,1,1,0.,24.0,0.,24.0
1981-08-24 04:23:08.980 ,1,0,0.,24.0,0.,24.0
1981-08-24 04:23:32.980 ,0,1,0.,24.0,0.,24.0
1981-08-24 04:23:56.980 ,0,0,0.,24.0,0.,24.0
1981-08-24 04:24:20.980 ,0,1,0.,24.0,0.,24.0
1981-08-24 04:24:44.980 ,0,0,0.,24.0,0.,24.0
1981-08-24 04:25:08.980 ,1,1,0.,24.0,0.,24.0
1981-08-24 04:25:32.980 ,1,0,0.,24.0,0.,24.0
1981-08-24 04:25:56.980 ,2,1,0.,24.0,0.,24.0
1981-08-24 04:26:20.980 ,2,0,0.,24.0,0.,24.0
1981-08-24 04:26:44.980 ,3,1,0.,24.0,0.,24.0
1981-08-24 04:27:08.980 ,3,0,0.,24.0,0.,24.0
1981-08-24 04:27:32.980 ,4,1,0.,24.0,0.,24.0
1981-08-24 04:27:56.980 ,4,0,0.,24.0,0.,24.0
1981-08-24 04:28:20.980 ,5,1,0.,24.0,0.,24.0
1981-08-24 04:28:44.980 ,5,0,0.,24.0,0.,24.0
1981-08-24 04:29:08.980 ,6,1,0.,24.0,0.,24.0
1981-08-24 04:29:32.980 ,6,0,0.,24.0,0.,24.0
1981-08-24 04:29:56.980 ,7,1,0.,24.0,0.,24.0
1981-08-24 04:30:20.980 ,7,0,0.,24.0,0.,24.0
1981-08-24 04:30:44.980 ,7,1,0.,24.0,0.,24.0
1981-08-24 04:31:08.980 ,6,1,0.,24.0,0.,24.0
1981-08-24 04:31:32.980 ,5,1,0.,24.0,0.,24.0
1981-08-24 04:31:56.980 ,4,1,0.,24.0,0.,24.0
1981-08-24 04:32:20.980 ,3,1,0.,24.0,0.,24.0
1981-08-24 04:32:44.980 ,2,1,0.,24.0,0.,24.0
1981-08-24 04:33:08.980 ,1,1,0.,24.0,0.,24.0
1981-08-24 04:33:32.980 ,0,1,0.,24.0,0.,24.0
1981-08-24 04:33:56.980 ,0,1,0.,24.0,0.,24.0
1981-08-24 04:34:20.980 ,1,1,0.,24.0,0.,24.0
1981-08-24 04:34:44.980 ,2,1,0.,24.0,0.,24.0
1981-08-24 04:35:08.980 ,3,1,0.,24.0,0.,24.0
1981-08-24 04:35:32.980 ,4,1,0.,24.0,0.,24.0
1981-08-24 04:35:56.980 ,5,1,0.,24.0,0.,24.0
1981-08-24 04:36:20.980 ,6,1,0.,24.0,0.,24.0
1981-08-24 04:36:44.980 ,7,1,0.,24.0,0.,24.0
1981-08-24 04:37:08.980 ,7,1,0.,24.0,0.,24.0
1981-08-24 04:37:32.980 ,7,0,0.,24.0,0.,24.0
1981-08-24 04:37:56.980 ,6,1,0.,24.0,0.,24.0
1981-08-24 04:38:20.980 ,6,0,0.,24.0,0.,24.0
1981-08-24 04:38:44.980 ,5,1,0.,24.0,0.,24.0
1981-08-24 04:39:08.980 ,5,0,0.,24.0,0.,24.0
1981-08-24 04:39:32.980 ,4,1,0.,24.0,0.,24.0
1981-08-24 04:39:56.980 ,4,0,0.,24.0,0.,24.0
1981-08-24 04:40:20.980 ,3,1,0.,24.0,0.,24.0
1981-08-24 04:40:44.980 ,3,0,0.,24.0,0.,24.0
1981-08-24 04:41:08.980 ,2,1,0.,24.0,0.,24.0
1981-08-24 04:41:32.980 ,2,0,0.,24.0,0.,24.0
1981-08-24 04:41:56.980 ,1,1,0.,24.0,0.,24.0
1981-08-24 04:42:20.980 ,1,0,0.,24.0,0.,24.0
1981-08-24 04:42:44.980 ,0,1,0.,24.0,0.,24.0
1981-08-24 04:43:08.980 ,0,0,0.,24.0,0.,24.0
1981-08-24 04:43:32.980 ,0,1,0.,24.0,0.,24.0
1981-08-24 04:43:56.980 ,0,0,0.,24.0,0.,24.0
1981-08-24 04:44:20.980 ,1,1,0.,24.0,0.,24.0
1981-08-24 04:44:44.980 ,1,0,0.,24.0,0.,24.0
1981-08-24 04:45:08.980 ,2,1,0.,24.0,0.,24.0
1981-08-24 04:45:32.980 ,2,0,0.,24.0,0.,24.0
1981-08-24 04:45:56.980 ,3,1,0.,24.0,0.,24.0
1981-08-24 04:46:20.980 ,3,0,0.,24.0,0.,24.0
1981-08-24 04:46:44.980 ,4,1,0.,24.0,0.,24.0
1981-08-24 04:47:08.980 ,4,0,0.,24.0,0.,24.0
1981-08-24 04:47:32.980 ,5,1,0.,24.0,0.,24.0
1981-08-24 04:47:56.980 ,5,0,0.,24.0,0.,24.0
1981-08-24 04:48:20.980 ,6,1,0.,24.0,0.,24.0
1981-08-24 04:48:44.980 ,6,0,0.,24.0,0.,24.0
1981-08-24 04:49:08.980 ,7,1,0.,24.0,0.,24.0
1981-08-24 04:49:32.980 ,7,0,0.,24.0,0.,24.0
1981-08-24 04:49:56.980 ,7,1,0.,24.0,0.,24.0
1981-08-24 04:50:20.980 ,6,1,0.,24.0,0.,24.0
1981-08-24 04:50:44.980 ,5,1,0.,24.0,0.,24.0
1981-08-24 04:51:08.980 ,4,1,0.,24.0,0.,24.0
1981-08-24 04:51:32.980 ,3,1,0.,24.0,0.,24.0
1981-08-24 04:51:56.980 ,2,1,0.,24.0,0.,24.0
1981-08-24 04:52:20.980 ,1,1,0.,24.0,0.,24.0
1981-08-24 04:52:44.980 ,0,1,0.,24.0,0.,24.0
1981-08-24 04:53:08.980 ,0,1,0.,24.0,0.,24.0
1981-08-24 04:53:32.980 ,1,1,0.,24.0,0.,24.0
1981-08-24 04:53:56.980 ,2,1,0.,24.0,0.,24.0
1981-08-24 04:54:20.980 ,3,1,0.,24.0,0.,24.0
1981-08-24 04:54:44.980 ,0,0,,0,,0
1981-08-24 04:55:08.980 ,0,0,,0,,0
